Theta_e
312 310 310 312 313 314 316 321 326 324 317 323 325 324 319 315 319 320 319 319 321 323 324 325 327 326 324 319 320 320 323 320 329 329 326 326 326 332 333 331 333 339 348 349
312 311 310 311 313 314 316 322 324 318 320 324 324 319 318 317 318 319 321 320 319 319 322 326 325 324 319 319 321 321 321 322 324 329 326 324 324 325 324 324 326 335 345 348
311 312 311 311 312 314 317 323 323 321 319 318 318 320 318 317 315 317 318 321 320 318 320 320 322 322 318 318 318 323 321 319 322 329 329 324 322 322 323 324 324 340 341 345
309 312 312 311 312 315 318 323 317 318 318 317 316 319 319 317 317 317 316 320 321 324 324 325 320 323 320 319 320 319 319 321 321 325 326 323 321 322 323 323 326 339 345 344
309 310 312 311 312 319 322 321 320 321 318 320 321 316 317 317 317 318 319 320 318 325 325 325 327 324 324 322 321 318 317 322 324 323 323 322 322 322 323 324 335 340 341 341
308 309 311 312 311 316 323 323 322 325 321 320 317 316 316 316 319 316 317 319 321 322 321 322 323 321 320 323 323 322 321 323 324 324 326 324 322 322 320 332 335 335 341 334
307 309 311 312 311 310 315 322 322 327 327 318 317 316 318 319 320 320 318 319 322 318 316 316 315 315 316 318 318 317 320 324 323 325 325 326 322 321 321 321 331 332 332 331
307 308 309 312 312 311 312 321 322 329 329 318 317 317 318 319 318 318 317 317 316 316 318 319 318 317 318 317 317 317 316 320 322 325 326 325 324 322 321 321 330 331 330 328
306 308 309 312 312 312 313 321 320 325 330 320 318 318 319 321 321 320 317 316 316 317 319 323 326 329 328 328 321 317 316 318 321 326 329 326 323 319 319 320 328 330 328 325
305 308 308 312 312 312 312 319 321 324 329 321 319 324 324 320 321 322 320 318 318 316 322 326 329 330 325 328 328 327 319 319 322 324 327 327 322 318 318 323 327 324 324 323
305 308 308 311 312 313 313 319 322 322 327 326 320 319 321 320 323 324 320 320 321 318 320 328 331 329 328 325 323 323 325 326 326 323 325 326 321 320 325 324 319 318 318 318
305 308 308 310 312 313 314 322 322 320 323 325 322 319 318 319 320 322 319 320 322 320 322 323 326 328 322 324 326 320 321 324 324 325 326 323 321 323 322 319 318 319 316 316
306 308 308 311 312 312 313 315 322 322 324 323 321 318 317 318 318 319 323 323 320 322 319 321 322 324 322 324 325 323 321 318 322 321 324 323 321 320 319 319 318 317 315 314
306 308 308 310 311 312 312 315 321 322 325 327 323 320 319 318 317 318 320 320 319 320 319 317 321 323 321 323 322 324 322 322 320 320 319 319 319 319 317 315 316 316 314 313
307 309 309 309 310 311 311 312 320 322 324 328 327 322 319 319 318 319 320 320 321 322 322 321 321 321 321 321 321 322 320 323 323 323 323 323 321 319 316 315 314 315 313 313
307 307 307 308 310 311 313 324 321 320 321 324 329 323 321 319 318 319 320 321 322 321 322 321 321 320 320 321 325 321 320 321 319 321 320 321 320 319 320 316 314 315 314 314
307 306 306 307 309 311 318 323 320 317 317 325 329 326 323 320 320 321 321 321 322 321 322 322 321 322 319 322 323 320 318 318 320 318 319 320 319 320 317 318 315 314 314 314
306 306 306 310 312 312 314 318 317 317 320 325 328 329 326 321 323 324 323 323 322 323 322 323 325 322 322 323 321 319 319 319 318 319 318 318 318 317 317 317 317 314 314 314
305 308 309 313 313 320 323 319 318 316 322 329 329 331 331 323 324 325 324 322 326 326 325 325 325 325 320 320 321 321 320 319 318 318 317 318 318 317 317 316 316 315 313 313
309 309 316 323 322 319 317 320 324 324 324 324 328 329 331 327 326 327 328 326 328 329 327 326 325 324 322 322 321 320 322 317 316 318 318 318 317 317 317 317 315 314 314 314
312 318 323 322 319 320 324 323 324 325 326 326 325 324 327 326 328 330 328 329 328 328 328 326 327 324 322 321 322 321 318 318 316 317 317 317 317 317 316 314 314 313 314 315
315 314 318 321 323 324 323 326 326 326 328 330 328 328 328 331 328 327 327 327 327 328 324 324 322 322 321 322 319 317 317 317 316 317 318 317 316 315 315 314 313 313 314 314
318 319 321 322 323 320 324 326 326 329 329 330 329 333 332 329 326 327 326 327 327 323 323 323 321 321 317 317 316 318 316 316 317 316 315 315 316 315 314 315 315 314 315 314
321 322 313 323 323 324 325 326 330 328 327 325 329 328 330 329 328 328 325 323 322 322 323 325 323 320 317 315 317 320 317 317 316 315 315 314 314 313 313 313 312 312 313 313
322 321 317 322 321 321 323 325 327 324 327 324 326 324 328 328 327 322 321 321 322 321 324 324 322 320 320 320 318 314 315 314 313 313 313 312 311 311 311 310 309 309 309 311
319 320 321 321 321 321 322 324 329 325 327 326 326 329 329 329 325 320 320 320 320 321 324 323 321 321 319 318 315 314 313 311 311 310 309 309 310 310 310 309 310 309 309 310
319 320 319 319 319 320 320 322 322 328 329 333 331 328 329 322 322 321 320 320 322 321 323 321 320 319 318 315 314 311 311 311 309 309 309 308 309 310 309 309 307 307 307 307
Wind_Speed
22 24 26 29 33 33 15 6 3 13 2 1 3 5 3 4 7 3 4 4 8 9 7 6 3 3 2 8 9 6 7 2 3 5 8 3 4 6 8 4 6 4 3 2
22 22 24 28 32 34 11 3 4 6 8 2 3 3 4 5 9 11 9 4 5 7 5 3 10 2 5 4 9 4 6 5 3 8 7 4 4 6 6 2 1 6 8 4
21 22 24 27 29 33 10 3 3 3 3 5 9 5 5 3 6 3 8 7 5 3 4 5 4 5 2 2 5 4 1 4 2 4 5 5 7 16 9 4 1 3 6 11
19 21 23 27 31 31 3 3 1 2 4 4 4 5 7 4 5 3 3 3 5 5 6 7 4 11 3 3 3 4 2 1 3 7 5 8 9 16 12 8 4 5 16 14
19 21 23 25 28 28 3 2 3 6 0 5 1 3 4 10 9 9 9 8 9 6 5 5 4 5 7 4 1 3 3 5 2 5 10 11 8 16 9 8 10 12 17 15
18 18 20 23 26 24 6 12 9 3 5 4 6 5 6 7 3 3 9 7 5 9 8 2 4 6 6 0 3 6 3 3 3 3 8 11 5 6 10 11 12 10 11 14
16 16 16 18 19 21 8 9 12 3 5 7 6 9 10 10 9 6 9 8 7 2 3 3 4 7 11 6 7 5 4 3 2 2 7 2 5 10 9 9 7 11 19 19
15 16 15 16 15 15 16 13 6 3 6 6 5 8 7 6 5 5 8 6 2 5 4 2 3 3 0 5 6 4 4 2 2 4 4 6 10 3 5 4 8 7 12 16
14 14 14 13 15 14 12 7 11 3 4 4 8 4 3 2 4 5 7 4 5 4 3 2 3 2 2 5 1 1 7 2 4 3 1 5 1 8 8 5 3 7 7 14
14 14 11 12 13 13 12 6 10 4 3 2 3 4 4 5 4 3 5 4 3 4 2 3 3 1 1 2 4 4 2 3 1 3 3 2 4 6 5 4 3 4 6 8
11 12 8 9 11 12 12 7 5 4 3 5 4 3 2 2 4 3 1 1 2 1 1 2 2 2 1 3 4 4 3 2 1 1 2 2 9 7 3 3 5 9 14 14
12 11 7 7 9 10 9 4 7 8 3 4 12 8 1 3 6 1 1 2 2 1 3 2 4 1 2 6 2 4 1 3 3 2 3 2 6 6 3 6 5 5 8 9
10 8 6 6 7 9 9 6 11 13 2 5 9 7 8 6 4 3 2 2 3 4 2 1 2 2 3 2 3 3 5 3 3 4 1 6 5 4 4 5 5 5 6 8
8 7 5 5 6 7 8 5 7 12 4 3 4 10 10 10 6 4 5 7 3 1 1 2 1 2 2 1 1 1 3 1 4 4 6 3 3 7 7 4 2 5 7 8
7 6 4 5 6 7 7 8 5 9 2 3 4 5 11 6 3 4 4 3 2 0 2 2 1 2 3 2 1 2 1 2 3 4 4 2 5 6 11 9 7 6 6 6
5 5 5 5 6 7 4 2 3 4 6 2 3 3 5 14 12 6 4 5 3 2 1 1 2 5 2 2 2 3 5 5 7 4 6 6 5 7 5 11 10 10 9 10
4 5 6 5 6 5 4 2 2 6 6 2 3 3 4 10 6 4 3 7 2 2 1 0 2 2 2 1 3 4 7 6 5 3 2 4 3 4 6 3 17 22 17 18
4 5 7 6 5 6 6 5 5 5 3 4 3 1 3 10 3 3 3 3 3 1 2 2 2 2 2 4 7 6 8 8 6 5 6 6 4 4 6 10 13 10 9 11
5 4 6 3 2 4 3 3 4 4 3 3 3 2 3 6 3 3 2 2 1 2 2 2 4 3 5 6 6 7 6 4 3 4 4 4 2 3 5 6 5 6 7 7
3 2 2 3 2 6 6 1 3 3 3 4 3 3 2 5 3 3 3 1 3 2 4 4 3 3 6 7 8 7 7 4 4 3 3 4 6 5 2 8 7 5 10 15
1 4 1 1 5 2 3 2 2 3 3 3 4 6 3 1 3 4 4 3 2 2 4 5 2 3 4 7 9 7 3 6 5 5 4 3 3 4 7 2 5 11 10 6
5 11 8 5 3 4 3 3 3 4 4 4 5 4 3 2 5 4 4 1 1 3 2 2 2 3 5 1 7 6 2 3 2 5 6 6 6 8 7 6 11 20 12 13
3 3 4 3 2 2 5 5 3 3 4 3 3 5 3 3 3 3 2 2 2 2 1 3 4 4 7 11 12 3 4 2 3 6 8 15 6 12 10 14 20 14 7 9
3 4 3 4 5 5 5 6 2 3 4 6 3 3 1 1 1 2 2 2 3 1 3 4 2 7 7 12 11 7 3 7 7 5 7 1 6 7 4 3 4 5 4 11
3 3 3 7 7 8 8 7 3 3 6 5 4 2 1 2 3 3 3 0 3 4 2 2 3 4 4 3 1 8 6 5 2 4 7 11 14 13 10 9 7 5 6 6
3 5 6 6 7 8 4 5 3 6 4 5 5 5 2 2 4 2 3 3 4 1 3 3 4 3 1 5 6 5 8 9 11 11 8 7 6 5 7 9 11 11 12 10
4 5 7 9 8 7 5 4 5 6 7 3 3 5 3 4 3 4 3 4 1 4 5 4 2 4 4 5 6 8 7 10 6 7 11 10 10 12 12 11 16 18 16 14
Wind_Direction
344 344 347 353 352 358 5 296 291 256 197 355 146 249 348 324 10 79 9 37 9 93 349 40 86 70 70 7 339 336 348 300 330 289 303 304 301 209 182 151 290 83 58 100
345 344 344 350 353 359 346 275 260 141 215 260 258 167 120 42 3 5 359 67 96 343 79 54 121 332 44 21 15 26 325 339 10 326 309 24 336 300 288 294 322 183 142 134
344 346 345 345 349 351 344 282 308 341 51 25 36 8 61 105 62 354 343 342 342 120 112 116 7 170 101 41 50 276 10 16 3 220 288 341 343 339 283 250 266 79 139 133
344 348 348 344 345 348 320 239 22 281 15 353 96 22 3 360 57 9 57 303 68 88 33 339 34 359 80 164 111 304 13 212 74 332 295 310 329 315 261 258 250 118 161 146
344 350 351 349 351 351 267 323 5 344 123 244 214 56 55 44 35 6 33 28 15 90 140 157 3 348 352 59 267 216 329 357 90 287 316 322 332 322 273 283 104 118 128 123
343 349 353 354 355 12 345 349 343 349 271 298 81 58 47 51 42 73 43 5 5 58 30 39 162 242 268 308 30 354 323 71 36 311 342 302 333 323 360 70 95 106 122 126
343 343 353 358 356 6 341 317 333 297 306 77 44 68 52 46 15 54 65 3 13 29 210 315 312 301 285 353 337 325 342 28 91 4 9 241 302 15 4 66 80 103 125 142
339 342 348 355 353 352 352 340 350 322 314 118 147 113 117 141 207 84 66 58 357 284 284 266 184 215 217 244 241 322 329 12 349 135 164 281 317 28 359 27 106 132 125 119
333 341 341 351 353 351 356 358 3 317 306 34 67 115 215 277 200 135 122 111 327 315 262 165 58 51 296 327 175 17 322 125 117 351 296 211 213 52 6 6 8 135 132 136
327 336 337 342 355 351 349 313 355 313 302 70 1 50 26 24 349 119 129 150 206 231 302 42 69 204 116 291 2 351 311 8 197 276 272 54 324 49 334 98 235 40 116 122
319 330 330 337 352 351 357 309 352 19 317 297 22 70 24 14 16 57 216 3 280 263 354 79 90 85 211 32 310 315 357 59 264 285 270 187 14 29 52 164 41 74 74 90
314 329 322 332 347 348 358 322 1 339 240 300 318 331 121 27 36 14 185 149 231 54 25 93 133 126 256 170 270 164 278 139 198 90 199 50 57 100 66 73 74 70 97 112
309 322 308 331 340 343 356 320 340 338 241 279 238 204 198 201 214 24 87 27 21 51 92 298 213 148 182 190 245 215 215 175 141 53 174 155 158 125 103 92 113 92 117 105
302 313 301 322 328 326 335 334 329 325 297 262 121 96 158 186 222 156 25 107 48 87 161 232 291 97 71 347 112 91 205 20 205 199 248 288 196 163 148 132 95 147 130 140
301 309 300 307 317 313 307 292 268 310 323 313 305 179 143 172 213 172 145 127 154 115 23 0 309 77 40 301 303 256 252 266 162 221 354 326 236 191 173 162 178 170 148 137
280 299 307 308 310 319 332 246 106 56 23 292 295 71 132 165 153 180 190 213 155 105 38 249 7 21 148 313 289 205 257 161 150 212 234 229 251 288 242 175 178 169 161 156
262 288 297 310 298 294 264 351 313 10 345 259 267 183 138 149 156 189 197 202 120 96 167 330 217 143 128 231 218 257 337 314 161 131 275 299 292 278 289 213 177 176 178 178
260 288 303 296 290 280 271 264 240 322 287 271 272 139 130 175 187 209 139 150 92 256 198 167 110 108 242 240 225 237 255 248 259 239 197 241 199 336 246 187 170 173 168 171
273 300 303 309 240 237 144 164 233 251 276 300 258 211 176 161 233 109 72 59 137 356 188 173 130 197 223 227 225 246 260 98 3 335 304 181 163 45 355 333 249 183 180 171
301 335 240 220 125 143 149 129 191 205 209 221 253 294 160 164 129 164 112 189 210 208 226 129 194 256 224 218 220 221 253 145 124 269 299 147 169 184 55 273 288 244 173 189
59 229 288 83 159 194 215 221 234 181 241 225 221 229 238 220 146 175 175 178 218 242 206 158 212 268 242 216 214 227 241 129 147 209 195 129 149 197 172 258 297 297 310 282
318 299 296 195 214 220 206 201 208 221 253 233 194 212 173 48 69 39 0 62 204 251 120 91 275 262 260 1 129 157 64 53 87 168 170 203 171 161 201 238 206 246 255 343
271 233 242 173 192 40 216 207 204 233 201 239 147 67 48 56 62 136 164 247 206 39 67 222 227 22 74 49 343 118 114 214 116 48 41 73 205 204 194 222 242 245 254 240
248 205 309 208 203 228 206 229 217 187 142 77 33 70 248 77 102 121 143 43 29 86 227 233 92 114 119 147 222 296 63 97 82 70 103 180 148 121 102 41 344 358 294 278
256 240 234 217 239 268 257 237 157 207 125 125 61 324 119 142 79 29 84 111 222 227 240 64 123 121 137 215 312 66 50 56 72 31 39 54 46 40 35 18 352 329 317 265
242 242 263 277 268 260 278 270 175 114 126 104 139 230 200 87 125 141 193 196 224 223 73 73 65 93 98 72 77 58 56 38 73 67 57 34 17 356 322 316 333 345 352 358
238 237 231 244 275 284 296 314 310 113 150 133 151 195 133 115 128 187 195 214 261 122 120 120 192 163 100 110 81 71 63 80 40 21 52 55 25 11 11 15 1 345 327 315